User: anonymous   Login
Location: Unspecified
(0.0000°N, 0.0000°E)
Time: 00:40:16
(UTC+00:00)
Language:

AAUSAT CUBESAT 2 - Orbit

View from above orbital plane
View from above orbital plane
View from above satellite
View from above satellite

Ground track
Ground track

The orbit data is extracted from the following two-line orbital elements,

1 32788U 08021F   17206.61380388 +.00000106 +00000-0 +15097-4 0  9995
2 32788 097.5564 241.1464 0012092 010.2050 349.9413 14.93914719501311
Epoch (UTC): 25 July 2017 14:43:52
Eccentricity: 0.0012092
inclination: 97.5564°
perigee height: 577 km
apogee height: 594 km
right ascension of ascending node: 241.1464°
argument of perigee: 10.2050°
revolutions per day: 14.93914719
mean anomaly at epoch: 349.9413°
orbit number at epoch: 50131

The dashed part of the orbit path shows where the satellite is in the earth's shadow,  

DLR